Tracking 25734 objects as of 27-May-2022
HD Live streaming from Space Station
objects crossing your sky now

COSMOS 1823 DEB

Track COSMOS 1823 DEB now!
10-day predictions


NORAD ID: 18755
Int'l Code: 1987-020AG
Perigee: 1,476.8 km
Apogee: 1,532.0 km
Inclination: 73.6 °
Period: 115.9 minutes
Semi major axis: 7875 km
RCS: 0.0433 m2 (small)
Launch date: February 20, 1987
Source: Commonwealth of Independent States (former USSR) (CIS)
Launch site: PLESETSK MISSILE AND SPACE COMPLEX (PKMTR)

Note: This is SATELLITE DEBRIS
aabbcc
Your satellite tracking list
Your tracking list is empty




NASA's NSSDC Master Catalog

Two Line Element Set (TLE):
1 18755U 87020AG  22145.40996104 -.00000014  00000-0  20656-4 0  9999
2 18755  73.6388 262.5837 0035030 158.5029 276.9679 12.42212273560741
Source of the keplerian elements: AFSPC